Voltar ao catálogo

NOAA 16 DEB

AtivoPO
NORAD 42371·DEBRIS·🇺🇸 United States

Lançado Sep 21, 2000 de Vandenberg Space Force Base

Loading…

Próximas Passagens (próximas 24 horas)

TLE

EnvelhecendoSource: Space-Track

Época: Sep 10, 2026, 01:20 UTC

1 42371U 00055RP  26253.05612086  .00008975  00000-0  17396-2 0  9990
2 42371  99.0695 194.7939 0027625 162.3595 197.8569 14.63284378554984

Acompanhe NOAA 16 DEB em tempo real com AllMySat

Download on the App Store